CST,Max TemperatureF,Mean TemperatureF,Min TemperatureF,Max Dew PointF,MeanDew PointF,Min DewpointF,Max Humidity, Mean Humidity, Min Humidity, Max Sea Level PressureIn, Mean Sea Level PressureIn, Min Sea Level PressureIn, Max VisibilityMiles, Mean VisibilityMiles, Min VisibilityMiles, Max Wind SpeedMPH, Mean Wind SpeedMPH, Max Gust SpeedMPH,PrecipitationIn, CloudCover, Events, WindDirDegrees
2012-12-1,62,53,44,54,47,39,94,75,48,29.94,29.87,29.80,10,8,2,21,12,24,0.00,4,,217
2012-12-2,66,50,35,46,41,34,93,71,43,30.05,29.95,29.79,10,8,0,14,5,,0.00,0,,173
2012-12-3,68,58,48,54,45,34,82,62,34,30.11,29.84,29.68,10,10,10,29,20,40,0.00,1,,252
2012-12-4,60,46,32,32,24,19,70,45,22,30.33,30.27,30.12,10,10,4,12,7,,0.00,0,,308
2012-12-5,59,47,35,28,22,18,56,40,23,30.33,30.17,29.97,10,10,10,21,10,25,0.00,0,,175
2012-12-6,53,45,37,43,36,25,82,67,49,29.96,29.90,29.84,10,10,10,16,11,18,0.00,5,,136
2012-12-7,46,40,33,39,33,27,87,76,61,29.97,29.91,29.84,10,8,1,14,8,,0.00,5,,15
2012-12-8,48,37,26,37,32,21,87,80,62,29.97,29.91,29.82,10,7,2,13,7,,0.00,3,,79
2012-12-9,41,30,19,37,20,5,87,62,41,30.17,30.00,29.83,10,8,1,25,12,37,0.00,7,,338
2012-12-10,32,20,8,7,2,0,73,46,27,30.16,30.08,29.99,10,10,10,23,13,30,0.00,0,,273
2012-12-11,46,32,17,18,10,1,55,44,31,30.12,30.07,29.99,10,10,6,10,8,,0.00,0,,223
2012-12-12,51,38,26,16,14,12,55,39,24,30.14,30.09,30.04,10,10,10,29,15,34,0.00,0,,186
2012-12-13,57,46,35,25,20,16,52,40,27,30.10,30.05,30.02,10,10,10,24,19,32,0.00,0,,187
2012-12-14,55,47,39,43,31,23,87,58,43,30.05,29.87,29.51,10,10,4,28,17,36,0.24,4,Thunderstorm,169
2012-12-15,57,48,37,43,38,30,87,67,48,29.73,29.62,29.44,10,10,10,30,18,40,0.00,2,,262
2012-12-16,42,36,30,34,30,27,93,80,61,29.82,29.75,29.68,10,6,0,16,9,17,0.00,4,,23
2012-12-17,51,38,26,30,27,25,93,69,35,29.82,29.76,29.66,10,7,2,18,9,22,0.00,2,,269
2012-12-18,57,44,30,30,23,18,86,51,21,29.84,29.75,29.63,10,10,10,20,11,26,0.00,0,,329
2012-12-19,48,40,30,41,32,25,87,70,53,29.84,29.63,29.47,10,8,0,34,12,41,0.04,5,,80
2012-12-20,33,28,23,27,18,14,93,68,48,30.30,30.10,29.62,10,8,1,39,26,52,0.00,2,,309
2012-12-21,48,32,17,27,19,10,80,61,37,30.32,30.25,30.17,10,10,10,12,5,,0.00,0,,172
2012-12-22,53,40,26,27,19,14,75,50,26,30.16,30.01,29.93,10,10,10,15,10,17,0.00,0,,187
2012-12-23,32,26,19,25,19,14,93,81,74,30.01,29.95,29.90,10,6,1,17,11,20,0.00,4,,356
2012-12-24,26,20,15,16,11,10,86,69,55,30.09,30.04,29.98,10,10,8,18,13,22,0.00,1,,22
2012-12-25,21,16,12,10,8,3,73,66,53,30.27,30.17,30.06,10,10,10,32,20,41,0.00,4,,22
2012-12-26,26,16,6,12,6,1,79,66,43,30.27,30.19,30.07,10,10,10,17,11,22,0.00,0,,34
2012-12-27,32,24,17,19,17,10,80,70,60,30.08,29.94,29.86,10,10,10,20,10,24,0.00,5,,153
2012-12-28,28,22,14,19,13,9,80,66,47,30.15,30.03,29.95,10,10,10,18,11,24,0.00,4,,326
2012-12-29,42,25,8,18,11,3,79,61,34,30.32,30.26,30.14,10,10,10,13,8,16,0.00,0,,270
2012-12-30,46,32,19,21,17,12,80,51,29,30.30,30.19,30.11,10,10,10,30,14,41,0.00,0,,189
2012-12-31,33,27,21,28,22,16,93,76,48,30.14,30.07,29.97,10,7,1,18,9,21,0.00,7,,82